Location: Buckeye Ditch
(40.9104°N, 122.9517°W)
Time: 18:59:18
(UTC+00:00)

Transit 2A - All Passes

Search period start: 19 May 2025 00:00
Search period end: 29 May 2025 00:00
Orbit: 600 x 946 km, 66.7° (Epoch: 19 May)

Date Brightness Start Highest point End Pass type
(mag) Time Alt. Az. Time Alt. Az. Time Alt. Az.
19 May - 01:12:26 10° NW 01:16:24 30° WSW 01:20:37 10° S daylight
19 May - 14:08:58 10° SSE 14:12:46 24° ESE 14:16:21 10° ENE daylight
19 May - 15:51:17 10° WSW 15:55:35 35° NW 15:59:39 10° NNE daylight
19 May - 22:53:57 10° N 22:57:18 20° NE 23:00:48 10° E daylight
20 May - 00:36:08 10° NW 00:40:29 48° WSW 00:45:11 10° S daylight
20 May - 13:34:18 10° SE 13:36:55 15° ESE 13:39:27 10° ENE daylight
20 May - 15:14:53 10° SW 15:19:30 56° WNW 15:23:51 10° NNE daylight
20 May - 22:18:40 10° NNE 22:21:04 14° NE 22:23:31 10° ENE daylight
21 May - 00:00:02 10° NNW 00:04:32 79° WSW 00:09:25 10° SSE daylight
21 May - 14:38:45 10° SSW 14:43:29 90° N 14:47:55 10° NNE daylight
21 May - 16:25:16 10° WNW 16:27:04 12° NW 16:28:51 10° NNW daylight
21 May - 23:24:03 10° NNW 23:28:31 66° ENE 23:33:22 10° SE daylight
22 May - 01:08:53 10° WNW 01:11:04 13° WSW 01:13:20 10° SW daylight
22 May - 14:02:54 10° SSW 14:07:31 55° ESE 14:11:51 10° NE daylight
22 May - 15:47:42 10° W 15:50:47 18° NW 15:53:48 10° N daylight
22 May - 22:48:12 10° NNW 22:52:28 41° NE 22:57:02 10° SE daylight
23 May - 00:31:45 10° WNW 00:35:14 21° WSW 00:38:55 10° SSW daylight
23 May - 13:27:21 10° S 13:31:36 34° ESE 13:35:36 10° NE daylight
23 May - 15:10:44 10° WSW 15:14:35 26° NW 15:18:18 10° N daylight
23 May - 22:12:29 10° N 22:16:22 27° NE 22:20:26 10° ESE daylight
23 May - 23:55:14 10° NW 23:59:21 34° WSW 00:03:47 10° S daylight
24 May - 12:52:12 10° SSE 12:55:43 21° ESE 12:59:04 10° ENE daylight
24 May - 14:34:07 10° SW 14:38:28 39° NW 14:42:36 10° NNE daylight
24 May - 21:36:58 10° N 21:40:10 19° NE 21:43:31 10° E daylight
24 May - 23:18:58 10° NW 23:23:25 55° WSW 23:28:14 10° SSE daylight
25 May - 12:17:49 10° SE 12:19:53 13° ESE 12:21:54 10° E daylight
25 May - 13:57:47 10° SW 14:02:23 63° WNW 14:06:46 10° NNE daylight
25 May - 21:01:47 10° NNE 21:03:54 13° NE 21:06:04 10° ENE daylight
25 May - 22:42:53 10° NNW 22:47:27 88° WSW 22:52:23 10° SSE daylight
26 May - 13:21:42 10° SSW 13:26:23 81° ESE 13:30:48 10° NNE daylight
26 May - 15:07:45 10° WNW 15:09:55 13° NW 15:12:01 10° NNW daylight
26 May - 22:06:56 10° NNW 22:11:25 59° ENE 22:16:16 10° SE daylight
26 May - 23:51:21 10° WNW 23:54:02 15° WSW 23:56:50 10° SW daylight
27 May - 12:45:55 10° S 12:50:26 49° ESE 12:54:41 10° NE daylight
27 May - 14:30:22 10° W 14:33:38 19° NW 14:36:49 10° N daylight
27 May - 21:31:08 10° NNW 21:35:22 37° NE 21:39:53 10° ESE daylight
27 May - 23:14:27 10° WNW 23:18:10 24° WSW 23:22:08 10° SSW daylight
28 May - 12:10:27 10° S 12:14:31 30° ESE 12:18:22 10° NE visible
28 May - 13:53:29 10° WSW 13:57:26 28° NW 14:01:15 10° N daylight
28 May - 20:55:26 10° N 20:59:13 25° NE 21:03:12 10° ESE daylight
28 May - 22:38:00 10° NW 22:42:17 38° WSW 22:46:52 10° S daylight
